Location: *
(51.2167°N, 10.0667°E)
Time: 07:01:43
(UTC+00:00)

YAOGAN 6 - Pass Details

Date: 12 December 2019
Orbit: 466 x 504 km, 97.0° (Epoch: 17 January)

Event Time Altitude Azimuth Distance (km) Brightness Sun altitude
Rises 16:51:27 0° 150° (SSE) 2,524 6.1 -14.5°
Reaches altitude 10° 16:53:32 10° 144° (SE) 1,656 5.1 -14.8°
Maximum altitude 16:56:57 45° 71° (ENE) 674 2.8 -15.3°
Drops below altitude 10° 17:00:26 10° 358° (N) 1,692 5.1 -15.8°
Sets 17:02:35 0° 352° (N) 2,585 6.2 -16.2°
